Stations météo

réclame
Mon MeteoGroup
Lille, France (7015): Température de l'air & dewpoint: 16.01.2020 01:00:00 - 22.01.2020 01:00:00 (CET)Lille, France (7015): Température de l'air 5cm: 16.01.2020 01:00:00 - 22.01.2020 01:00:00 (CET)Lille, France (7015): Température de l'air -20cm & Température de l'air -100cm: 16.01.2020 01:00:00 - 22.01.2020 01:00:00 (CET)Lille, France (7015): Vitesse du vent & gusts: 16.01.2020 01:00:00 - 22.01.2020 01:00:00 (CET)Lille, France (7015): Direction du vent: 16.01.2020 01:00:00 - 22.01.2020 01:00:00 (CET)Lille, France (7015): reduced air pressure: 16.01.2020 01:00:00 - 22.01.2020 01:00:00 (CET)Lille, France (7015): visibility: 16.01.2020 01:00:00 - 22.01.2020 01:00:00 (CET)Lille, France (7015): Quantités de précipitations: 16.01.2020 01:00:00 - 22.01.2020 01:00:00 (CET)
Date & Time tt [°C] td [°C] tt 5cm [°C] tt -20cm [°C] tt -100cm [°C] ff [km/h] ff [knt] fx [km/h] fx [knt] dd ppp [hPa] vv [km] rr [mm]
22.01.2020 01:00:00 -1,0 -1,0 -0,8 3,7 7,8 4 2 10 5 N 1039,6 0,1 0,0
22.01.2020 00:00:00 -0,8 -0,8 -0,6 3,8 7,8 2 1 17 9 WNW 1039,3 0,1 0,0
21.01.2020 23:00:00 -0,6 -0,6 -0,7 3,9 7,8 8 5 14 7 N 1040,0 0,1 0,0
21.01.2020 22:00:00 -0,7 -0,7 -0,6 3,9 7,8 3 2 10 5 S 1039,9 0,1 0,0
21.01.2020 21:00:00 -0,6 -0,6 -0,6 4,0 7,8 5 3 9 5 SE 1040,4 0,1 0,0
21.01.2020 20:00:00 -0,6 -0,6 -0,4 4,1 7,8 5 3 11 6 SSE 1040,6 0,1 0,0
21.01.2020 19:00:00 -0,3 -0,3 -0,3 4,2 7,8 4 2 8 5 E 1040,9 0,1 0,0
21.01.2020 18:00:00 -0,4 -0,5 -0,3 4,3 7,8 2 1 7 4 E 1040,9 0,1 0,0
21.01.2020 17:00:00 0,2 0,1 0,4 4,3 7,8 3 2 9 5 NNW 1040,9 0,2 0,0
21.01.2020 16:00:00 0,6 0,6 1,3 4,2 7,9 0 0 9 5 N 1041,3 0,3 0,0
21.01.2020 15:00:00 0,6 0,6 1,5 4,0 7,9 6 3 11 6 S 1041,7 0,5 0,0
21.01.2020 14:00:00 0,6 0,6 1,7 3,8 7,9 6 3 13 7 S 1042,2 0,5 0,0
21.01.2020 13:00:00 0,8 0,8 1,4 3,6 7,9 4 2 10 5 S 1042,9 0,5 0,0
21.01.2020 12:00:00 0,2 0,2 0,0 3,4 7,9 4 2 12 6 NNW 1043,6 0,3 0,2
21.01.2020 11:00:00 -1,2 -1,3 -1,5 3,4 7,9 9 5 16 8 NW 1043,5 0,2 0,0
21.01.2020 10:00:00 -2,2 -2,3 -1,7 3,4 7,9 2 1 5 3 W 1043,3 0,1 0,0
21.01.2020 09:00:00 -1,8 -1,9 -1,6 3,4 7,9 0 0 8 5 N 1043,1 0,1 0,0
21.01.2020 08:00:00 -1,6 -1,7 -1,5 3,5 7,9 3 2 9 5 ESE 1042,9 0,1 0,0
21.01.2020 07:00:00 -1,6 -1,7 -1,7 3,6 7,9 3 1 6 4 NE 1042,9 0,1 0,0
21.01.2020 06:00:00 -1,8 -1,9 -1,7 3,7 7,9 3 2 6 3 NE 1042,8 0,1 0,0
21.01.2020 05:00:00 -1,3 -1,4 -1,8 3,8 8,0 3 1 7 4 NE 1043,1 0,1 0,0
21.01.2020 04:00:00 -0,8 -0,9 -1,6 4,0 8,0 3 2 6 3 ENE 1043,6 0,1 0,0
21.01.2020 03:00:00 0,7 0,6 -1,5 4,1 8,0 3 2 8 4 NE 1044,3 0,1 0,0
21.01.2020 02:00:00 2,1 2,0 -0,2 4,1 8,0 0 0 16 8 N 1044,6 1,3 0,0
21.01.2020 01:00:00 2,7 2,7 2,1 4,1 8,0 10 5 22 12 SE 1045,2 0,2 0,0
21.01.2020 00:00:00 2,1 2,0 1,4 4,1 8,0 10 5 14 8 SE 1045,4 0,1 0,0
20.01.2020 23:00:00 1,9 1,8 1,2 4,2 8,0 3 1 7 4 E 1045,3 0,1 0,0
20.01.2020 22:00:00 2,6 2,5 1,7 4,3 8,0 3 2 9 5 ENE 1045,7 0,1 0,0
20.01.2020 21:00:00 2,9 2,6 1,5 4,3 8,0 5 3 9 5 ENE 1046,0 0,3 0,0
20.01.2020 20:00:00 3,0 2,7 1,9 4,4 8,0 5 3 9 5 NE 1046,0 2,8 0,0
20.01.2020 19:00:00 3,7 3,4 2,8 4,4 8,0 4 2 8 4 N 1045,9 3,0 0,0
20.01.2020 18:00:00 3,6 3,5 3,2 4,4 8,1 4 2 8 4 NW 1046,3 2,2 0,0
20.01.2020 17:00:00 3,7 3,6 3,9 4,3 8,1 2 1 8 4 W 1046,7 2,3 0,0
20.01.2020 16:00:00 3,6 3,5 3,9 4,1 8,1 5 3 12 7 W 1047,1 2,6 0,0
20.01.2020 15:00:00 3,3 3,3 3,6 3,9 8,0 8 4 11 6 WNW 1047,4 1,6 0,0
20.01.2020 14:00:00 2,9 2,9 3,3 3,7 8,1 5 3 11 6 W 1048,2 0,5 0,0
20.01.2020 13:00:00 2,8 2,8 3,3 3,4 8,1 8 4 11 6 WSW 1048,7 0,4 0,0
20.01.2020 12:00:00 2,4 2,4 1,7 3,2 8,1 4 2 8 4 SSW 1049,2 0,3 0,2
20.01.2020 11:00:00 0,8 0,8 0,1 3,2 8,1 2 1 4 2 ESE 1049,4 0,1 0,0
20.01.2020 10:00:00 -0,1 -0,2 -1,1 3,2 8,1 3 1 10 5 SSE 1048,9 0,1 0,0
20.01.2020 09:00:00 -1,2 -1,3 -2,8 3,2 8,1 4 2 10 5 SE 1048,7 0,1 0,0
20.01.2020 08:00:00 -1,0 -1,3 -3,7 3,3 8,1 4 2 10 5 ESE 1048,3 0,1 0,0
20.01.2020 07:00:00 -0,5 -0,8 -3,0 3,4 8,1 8 4 14 8 N 1048,3 0,4 0,0
20.01.2020 06:00:00 -0,4 -0,7 -2,8 3,4 8,1 4 2 6 3 E 1048,1 0,2 0,0
20.01.2020 05:00:00 0,3 0,0 -1,9 3,5 8,1 3 2 4 2 N 1047,8 0,1 0,0
20.01.2020 04:00:00 1,4 1,3 -2,4 3,6 8,1 3 2 8 5 NNE 1047,3 0,1 0,0
20.01.2020 03:00:00 0,4 0,1 -2,8 3,8 8,2 5 3 8 4 NW 1048,0 0,2 0,0
20.01.2020 02:00:00 0,2 -0,8 -2,5 3,9 8,2 6 3 8 4 W 1047,9 0,2 0,0
20.01.2020 01:00:00 2,6 2,0 -0,8 4,0 8,2 5 3 12 7 ESE 1048,2 3,8 0,0
20.01.2020 00:00:00 3,0 2,1 0,3 4,2 8,2 10 5 13 7 NNW 1047,9 9 0,0
19.01.2020 23:00:00 3,3 2,1 1,3 4,3 8,2 9 5 16 9 N 1047,4 11 0,0
19.01.2020 22:00:00 3,6 2,1 1,7 4,5 8,2 12 6 17 9 N 1047,1 11 0,0
19.01.2020 21:00:00 4,3 2,3 2,2 4,6 8,2 11 6 20 11 N 1046,5 13 0,0
19.01.2020 20:00:00 4,4 1,6 2,3 4,7 8,2 11 6 24 13 N 1045,9 12 0,0
19.01.2020 19:00:00 4,9 1,0 2,9 4,8 8,2 15 8 24 13 N 1045,2 15 0,0
19.01.2020 18:00:00 5,7 0,6 3,6 4,9 8,2 13 7 22 12 N 1044,6 20 0,0
19.01.2020 17:00:00 6,3 0,8 5,1 5,0 8,2 16 9 36 19 N 1043,6 20 0,0
19.01.2020 16:00:00 6,9 0,3 6,4 4,9 8,2 21 11 41 22 N 1042,5 33 0,0
19.01.2020 15:00:00 7,8 1,6 8,0 4,6 8,2 20 11 37 20 N 1041,9 20 0,0
19.01.2020 14:00:00 7,8 2,5 7,6 4,3 8,2 24 13 37 20 N 1041,7 19 0,0
19.01.2020 13:00:00 7,4 2,7 7,5 3,9 8,2 20 11 31 17 N 1041,5 20 0,0
19.01.2020 12:00:00 6,3 3,3 4,9 3,7 8,2 15 8 28 15 N 1041,3 19 0,0
19.01.2020 11:00:00 4,2 2,5 2,7 3,6 8,2 10 5 21 11 NW 1041,1 19 0,8
19.01.2020 10:00:00 3,3 1,8 -1,2 3,6 8,3 16 9 38 21 NNW 1039,8 19 0,0
19.01.2020 09:00:00 0,2 -0,4 -1,5 3,6 8,3 13 7 19 10 NW 1039,0 16 0,0
19.01.2020 08:00:00 0,5 0,1 -1,1 3,7 8,3 14 8 17 9 WNW 1037,9 15 0,0
19.01.2020 07:00:00 1,3 1,0 -1,6 3,8 8,3 8 5 14 8 WNW 1037,0 14 0,0
19.01.2020 06:00:00 0,3 -0,4 -0,3 3,9 8,3 14 8 18 10 WNW 1036,5 8 0,0
19.01.2020 05:00:00 1,5 0,6 -0,3 3,9 8,3 8 4 27 15 WNW 1036,2 19 0,0
19.01.2020 04:00:00 0,7 0,3 -1,7 4,0 8,3 10 6 28 15 WNW 1035,5 9 0,0
19.01.2020 03:00:00 -0,7 -1,1 -3,9 4,1 8,3 12 7 14 7 W 1035,2 7 0,0
19.01.2020 02:00:00 -0,8 -1,5 -3,2 4,3 8,3 12 6 14 7 W 1034,3 6 0,0
19.01.2020 01:00:00 -0,3 -0,9 -3,0 4,4 8,3 12 6 13 7 W 1033,5 7 0,0
19.01.2020 00:00:00 0,3 -0,4 -2,6 4,6 8,3 8 4 12 7 WNW 1032,9 7 0,0
18.01.2020 23:00:00 0,4 -0,3 -3,0 4,8 8,3 10 6 14 8 WNW 1032,3 6 0,0
18.01.2020 22:00:00 0,9 0,0 -2,4 5,0 8,3 8 5 11 6 W 1031,8 10 0,0
18.01.2020 21:00:00 0,9 -0,1 -2,6 5,2 8,3 10 5 11 6 WNW 1031,4 12 0,0
18.01.2020 20:00:00 2,0 0,4 -0,8 5,5 8,3 9 5 13 7 W 1030,9 20 0,0
18.01.2020 19:00:00 2,6 1,0 -0,3 5,7 8,3 10 5 13 7 WNW 1030,4 20 0,0
18.01.2020 18:00:00 3,5 1,0 1,2 5,9 8,3 11 6 18 10 W 1029,8 36 0,0
18.01.2020 17:00:00 5,4 1,5 4,4 6,0 8,3 14 8 22 12 W 1028,9 39 0,0
18.01.2020 16:00:00 7,0 1,5 7,0 5,9 8,3 16 8 23 12 W 1028,4 34 0,0
18.01.2020 15:00:00 6,5 1,4 7,0 5,7 8,3 14 8 29 15 WNW 1027,8 31 0,0
18.01.2020 14:00:00 7,2 2,1 7,5 5,4 8,3 16 8 27 15 W 1027,5 33 0,0
18.01.2020 13:00:00 7,1 2,6 8,2 5,1 8,3 15 8 24 13 W 1027,2 34 0,0
18.01.2020 12:00:00 6,3 3,1 6,7 4,9 8,3 16 9 25 13 WSW 1027,2 29 0,0
18.01.2020 11:00:00 4,7 2,9 4,3 4,9 8,3 11 6 18 10 WSW 1026,9 20 0,0
18.01.2020 10:00:00 2,5 1,8 0,5 5,0 8,3 3 2 10 6 SSW 1026,3 20 0,0
18.01.2020 09:00:00 1,1 0,2 -1,2 5,1 8,3 8 4 10 5 SW 1025,6 20 0,0
18.01.2020 08:00:00 1,5 0,3 -0,4 5,4 8,3 6 4 21 12 WSW 1024,8 36 0,0
18.01.2020 07:00:00 2,5 1,3 1,7 5,5 8,3 11 6 21 11 SW 1024,0 59 0,0
18.01.2020 06:00:00 2,9 1,4 2,3 5,7 8,3 13 7 23 12 SW 1023,4 60 0,0
18.01.2020 05:00:00 3,5 1,9 2,8 5,9 8,3 18 10 26 14 SW 1023,0 60 0,0
18.01.2020 04:00:00 4,0 1,9 3,6 6,0 8,3 16 9 31 17 SW 1022,9 60 0,0
18.01.2020 03:00:00 4,8 2,3 4,0 6,0 8,3 18 10 29 16 SW 1022,8 60 0,0
18.01.2020 02:00:00 4,4 2,1 3,7 6,1 8,3 23 12 32 18 SSW 1022,2 56 0,0
18.01.2020 01:00:00 4,0 1,9 3,3 6,3 8,3 19 10 28 15 S 1021,9 60 0,0
18.01.2020 00:00:00 5,0 2,2 4,3 6,4 8,3 15 8 37 20 WSW 1021,7 60 0,0
17.01.2020 23:00:00 5,1 1,9 4,5 6,6 8,3 21 11 37 20 SW 1021,1 60 0,0
17.01.2020 22:00:00 5,4 2,0 4,7 6,8 8,3 23 12 37 20 SW 1020,5 60 0,0
17.01.2020 21:00:00 5,4 2,9 4,3 7,0 8,3 17 9 27 14 SW 1020,2 39 0,0
17.01.2020 20:00:00 5,5 3,2 4,9 7,2 8,3 14 8 38 21 SSW 1019,8 45 0,0
17.01.2020 19:00:00 6,6 2,9 6,0 7,5 8,3 23 12 43 23 WSW 1019,0 60 0,0
17.01.2020 18:00:00 7,6 3,1 6,9 7,7 8,3 23 13 45 24 WSW 1017,9 57 0,0
17.01.2020 17:00:00 8,2 2,8 7,6 7,9 8,3 29 15 56 30 WSW 1016,9 52 0,0
17.01.2020 16:00:00 9,8 4,0 9,5 7,9 8,3 38 20 66 35 WSW 1016,0 26 -
17.01.2020 15:00:00 10,1 5,1 9,2 7,9 8,3 31 17 58 31 WSW 1015,0 30 -
17.01.2020 14:00:00 10,9 5,2 11,0 7,8 8,3 32 17 55 30 SW 1014,5 29 0,0
17.01.2020 13:00:00 10,5 6,1 10,5 7,6 8,3 26 14 39 21 SW 1014,3 31 0,0
17.01.2020 12:00:00 10,1 7,7 9,9 7,5 8,3 24 13 40 21 SW 1014,3 25 0,0
17.01.2020 11:00:00 9,7 7,6 9,2 7,4 8,3 23 13 42 23 SSW 1014,1 29 0,0
17.01.2020 10:00:00 9,2 7,3 9,0 7,2 8,3 27 15 40 21 S 1013,6 27 0,0
17.01.2020 09:00:00 9,2 7,3 8,7 7,2 8,3 26 14 38 21 S 1013,5 36 0,0
17.01.2020 08:00:00 9,0 7,3 8,1 7,1 8,3 23 12 33 18 S 1013,1 35 0,0
17.01.2020 07:00:00 8,9 7,2 8,1 7,1 8,3 21 12 40 22 S 1013,3 32 0,4
17.01.2020 06:00:00 9,7 6,4 8,5 7,0 8,3 26 14 38 20 S 1013,2 41 0,0
17.01.2020 05:00:00 9,0 5,6 8,4 7,1 8,3 22 12 37 20 S 1013,0 55 0,0
17.01.2020 04:00:00 9,5 5,9 8,9 7,0 8,3 19 11 33 18 SSE 1013,6 53 0,0
17.01.2020 03:00:00 9,3 5,7 9,0 7,0 8,3 21 12 35 19 SSE 1014,4 51 0,0
17.01.2020 02:00:00 9,5 5,7 9,0 6,9 8,3 23 13 39 21 SSE 1014,6 54 0,0
17.01.2020 01:00:00 9,4 5,6 8,8 6,9 8,4 23 13 38 20 SSE 1015,2 53 0,0
17.01.2020 00:00:00 9,2 5,6 8,6 7,0 8,4 24 13 44 24 SSE 1015,7 56 0,0
16.01.2020 23:00:00 9,5 5,9 9,0 7,0 8,3 30 16 47 25 SSE 1015,8 57 0,0
16.01.2020 22:00:00 10,0 6,2 9,4 7,0 8,4 29 15 44 24 SSE 1015,9 57 0,0
16.01.2020 21:00:00 10,6 6,3 9,8 7,0 8,3 31 17 55 30 SSE 1016,5 58 0,0
16.01.2020 20:00:00 10,6 6,3 9,8 7,1 8,4 28 15 51 27 SSE 1017,1 58 0,0
16.01.2020 19:00:00 10,5 6,6 9,4 7,1 8,3 23 12 38 21 SSE 1017,5 56 0,0
16.01.2020 18:00:00 10,0 7,4 9,6 7,1 8,3 23 13 35 19 SE 1018,1 49 0,0
16.01.2020 17:00:00 10,7 8,1 10,4 7,0 8,3 20 11 35 19 SE 1018,6 46 0,0
16.01.2020 16:00:00 11,1 8,5 11,9 6,7 8,3 25 14 38 20 SE 1018,8 30 0,0
16.01.2020 15:00:00 10,8 8,4 11,6 6,4 8,3 23 12 39 21 SSE 1019,7 21 0,0
16.01.2020 14:00:00 9,6 7,9 8,6 6,0 8,3 23 12 37 20 SSE 1020,5 19 0,0
16.01.2020 13:00:00 7,9 7,1 7,3 5,7 8,3 22 12 36 19 SSE 1021,8 14 0,0
16.01.2020 12:00:00 6,6 6,6 5,4 5,4 8,3 23 13 40 22 SSE 1022,8 10 0,0
16.01.2020 11:00:00 5,1 5,1 4,0 5,2 8,3 22 12 35 19 SSE 1023,8 3,2 0,0
16.01.2020 10:00:00 3,9 3,9 2,9 5,2 8,3 20 11 29 16 SSE 1024,0 0,4 0,0
16.01.2020 09:00:00 3,0 3,0 2,5 5,1 8,3 16 9 24 13 SE 1024,2 0,2 0,0
16.01.2020 08:00:00 2,7 2,6 1,2 5,2 8,3 14 8 22 12 SE 1024,3 0,1 0,0
16.01.2020 07:00:00 2,7 2,6 0,8 5,3 8,3 14 8 21 11 SSE 1024,4 2,7 0,0
16.01.2020 06:00:00 2,0 1,9 0,7 5,5 8,3 10 5 15 8 SSE 1024,6 1,3 0,0
16.01.2020 05:00:00 2,1 1,8 0,8 5,6 8,3 8 4 14 7 SE 1024,4 2,8 0,0
16.01.2020 04:00:00 3,8 3,4 2,2 5,8 8,3 5 3 16 8 SE 1024,1 2,5 0,0
16.01.2020 03:00:00 3,4 3,3 1,3 6,0 8,3 8 4 16 9 SSE 1024,0 5 0,0
16.01.2020 02:00:00 3,6 3,3 1,6 6,2 8,3 9 5 13 7 S 1023,5 11 0,0
16.01.2020 01:00:00 3,4 3,0 1,6 6,4 8,3 11 6 14 8 S 1023,3 18 0,0

tt = Température de l'air
td = dewpoint
tt 5cm = Température de l'air 5cm
tt -20cm = Température de l'air -20cm
tt -100cm = Température de l'air -100cm
ff = Vitesse du vent
fx = gusts
dd = Direction du vent
ppp = reduced air pressure
vv = visibility
rr = Quantités de précipitations

stations d'obs. à proximité